STARLINK-35617, 66422

Orbit data source: Space-Track

STARLINK-35617, 66422 is a payload satellite owned by SpaceX/Seattle (US) in LEO that was launched on Tue, 11 Nov 2025 UTC via an FALCON 9 launch vehicle from the Air Force Eastern Test Range (AFETR). Payload-class satellites include a variety of spacecraft equipped with specific instruments for various scientific and technological missions. These include communications satellites like Starlink; space stations such as the ISS; scientific satellites like the Hubble; Earth observation satellites from companies like Planet Labs, Umbra, and HawkEye 360; GPS; miniature CubeSats for education and research; and military/defense satellites.

Loading next visibility...
Identifier
66422, 2025-259A
Orbit
LEO
Country
Flag of USUS
Related business
Manufacturer
SpaceX/Seattle
Mission
Operational Commercial Communications
Bus & Motor
STARLINK V2MO, Unknown motor
Mass
575 kg wet, ~530 kg dry
Launch date (UTC)
2025-11-11 (7 months ago)
Launch vehicle
FALCON 9
Launch site
Air Force Eastern Test Range (AFETR)
Object type
Payload
Rocket body
Debris
Shape & HBR
Box + 2 Pan, 17.7 m
Radar Cross Section
36.964 m², Large (>1 m²)

Expand to show TLE details & history
Last TLE update: 1 day ago

TLE from 1 day ago
0 STARLINK-35617
1 66422U 25259A   26149.47255254  .00021749  00000-0  79699-3 0  9995
2 66422  43.0040 178.3423 0002205 280.6606  79.3998 15.27601415 31841
Epoch: 2026-05-29T11:20Z
TLE epoch observation values (Epoch: 2026-05-29T11:20:28.539Z)
Latitude
0.00003°
Longitude
121.22098°
Altitude
482.483 km
Speed
7.626 km/s
True Right ascension
11h 53m 22s
True Declination
0° 00' 00"
Sunlit
Object was in daylight at epoch
Visualization orbit readout
Latitude
Unknown
Longitude
Unknown
Altitude
Unknown
Speed
Unknown
Apparent Right ascension
Unknown
Apparent Declination
Unknown
Sunlit
N/A
Visualization observer readout
Local Sidereal Time
02:02:01
Azimuth
Unknown
Elevation
Unknown
Doppler factor
Unknown
Orbital elements
Apogee altitude
486.443 km
Perigee altitude
483.416 km
Semi-major axis
6,863.066 km
Eccentricity
0.00022
Inclination
43.004°
RAAN
178.3423°
Arg. of periapsis
280.6606°
True anomaly
79.42464°
Mean anomaly
79.3998°
Eccentric anomaly
79.41222°
Mean motion
3.81738 °/min
Orbital period
94.31 mins
BSTAR
0.00079699
Loading maneuver chart data...
Computing Atmospheric mass density...
Loading historical data...
Loading historical data...
Loading historical data...
Loading historical data...
Loading historical data...
Loading historical data...
Loading historical data...

Documentation

Showing up to 5 results
|